Time,TemperatureF,DewpointF,PressureIn,WindDirection,WindDirectionDegrees,WindSpeedMPH,WindSpeedGustMPH,Humidity,HourlyPrecipIn,Conditions,Clouds,dailyrainin,SoftwareType,DateUTC
2013-09-03 00:12:00,66.0,56.0,29.96,SE,145,2.0,5.0,71,0.00,,,0.00,,2013-09-03 05:12:00,
2013-09-03 00:23:00,66.0,56.0,29.96,ESE,117,1.0,5.0,71,0.00,,,0.00,,2013-09-03 05:23:00,
2013-09-03 00:43:00,65.0,56.0,29.96,SE,127,1.0,3.0,72,0.00,,,0.00,,2013-09-03 05:43:00,
2013-09-03 00:52:00,65.0,56.0,29.96,SSE,157,1.0,4.0,73,0.00,,,0.00,,2013-09-03 05:52:00,
2013-09-03 01:12:00,65.0,56.0,29.96,SE,140,1.0,5.0,73,0.00,,,0.00,,2013-09-03 06:12:00,
2013-09-03 01:22:00,65.0,56.0,29.96,SE,140,1.0,5.0,74,0.00,,,0.00,,2013-09-03 06:22:00,
2013-09-03 01:43:00,64.0,56.0,29.96,SE,134,1.0,4.0,74,0.00,,,0.00,,2013-09-03 06:43:00,
2013-09-03 01:52:00,64.0,56.0,29.96,SE,140,1.0,5.0,75,0.00,,,0.00,,2013-09-03 06:52:00,
2013-09-03 02:12:00,64.0,56.0,29.96,SE,142,3.0,8.0,75,0.00,,,0.00,,2013-09-03 07:12:00,
2013-09-03 02:22:00,64.0,56.0,29.96,SE,132,3.0,7.0,75,0.00,,,0.00,,2013-09-03 07:22:00,
2013-09-03 02:53:00,63.0,56.0,29.96,SSE,161,1.0,5.0,77,0.00,,,0.00,,2013-09-03 07:53:00,
2013-09-03 03:11:00,63.0,56.0,29.96,SE,146,0.0,5.0,78,0.00,,,0.00,,2013-09-03 08:11:00,
2013-09-03 03:22:00,63.0,56.0,29.96,SE,129,0.0,2.0,79,0.00,,,0.00,,2013-09-03 08:22:00,
2013-09-03 03:52:00,62.0,56.0,29.96,SE,142,1.0,3.0,81,0.00,,,0.00,,2013-09-03 08:52:00,
2013-09-03 04:11:00,61.0,55.0,29.95,SE,146,1.0,3.0,81,0.00,,,0.00,,2013-09-03 09:11:00,
2013-09-03 04:21:00,61.0,55.0,29.96,SE,142,0.0,2.0,82,0.00,,,0.00,,2013-09-03 09:21:00,
2013-09-03 04:43:00,61.0,55.0,29.96,SE,142,0.0,1.0,82,0.00,,,0.00,,2013-09-03 09:43:00,
2013-09-03 04:53:00,61.0,56.0,29.96,SE,142,0.0,1.0,83,0.00,,,0.00,,2013-09-03 09:53:00,
2013-09-03 05:13:00,60.0,55.0,29.96,SE,142,0.0,0.0,85,0.00,,,0.00,,2013-09-03 10:13:00,
2013-09-03 05:23:00,60.0,56.0,29.95,SE,142,0.0,1.0,86,0.00,,,0.00,,2013-09-03 10:23:00,
2013-09-03 05:42:00,59.0,55.0,29.95,SE,142,0.0,0.0,87,0.00,,,0.00,,2013-09-03 10:42:00,
2013-09-03 05:53:00,59.0,55.0,29.95,SE,142,0.0,1.0,88,0.00,,,0.00,,2013-09-03 10:53:00,
2013-09-03 06:12:00,59.0,55.0,29.95,SE,142,0.0,1.0,88,0.00,,,0.00,,2013-09-03 11:12:00,
2013-09-03 06:23:00,59.0,55.0,29.95,SE,142,0.0,1.0,88,0.00,,,0.00,,2013-09-03 11:23:00,
2013-09-03 06:42:00,59.0,56.0,29.96,SE,142,0.0,1.0,89,0.00,,,0.00,,2013-09-03 11:42:00,
2013-09-03 06:52:00,59.0,56.0,29.95,SE,142,0.0,0.0,89,0.00,,,0.00,,2013-09-03 11:52:00,
2013-09-03 07:12:00,59.0,56.0,29.95,SE,142,0.0,1.0,89,0.00,,,0.00,,2013-09-03 12:12:00,
2013-09-03 07:22:00,59.0,56.0,29.96,SE,139,0.0,2.0,89,0.00,,,0.00,,2013-09-03 12:22:00,
2013-09-03 07:42:00,59.0,55.0,29.96,SE,126,0.0,3.0,88,0.00,,,0.00,,2013-09-03 12:42:00,
2013-09-03 07:52:00,59.0,55.0,29.96,SE,126,0.0,1.0,88,0.00,,,0.00,,2013-09-03 12:52:00,
2013-09-03 08:11:00,60.0,56.0,29.96,SE,126,0.0,1.0,88,0.00,,,0.00,,2013-09-03 13:11:00,
2013-09-03 08:22:00,60.0,56.0,29.96,SE,126,0.0,1.0,88,0.00,,,0.00,,2013-09-03 13:22:00,
2013-09-03 08:42:00,60.0,56.0,29.96,SE,126,0.0,1.0,88,0.00,,,0.00,,2013-09-03 13:42:00,
2013-09-03 08:52:00,61.0,57.0,29.96,SE,126,1.0,2.0,88,0.00,,,0.00,,2013-09-03 13:52:00,
2013-09-03 09:11:00,62.0,58.0,29.96,SE,126,1.0,2.0,88,0.00,,,0.00,,2013-09-03 14:11:00,
2013-09-03 09:21:00,64.0,59.0,29.96,SE,124,1.0,2.0,85,0.00,,,0.00,,2013-09-03 14:21:00,
2013-09-03 09:42:00,65.0,59.0,29.96,SSE,148,2.0,5.0,81,0.00,,,0.00,,2013-09-03 14:42:00,
2013-09-03 09:52:00,65.0,59.0,29.97,SSE,153,2.0,3.0,81,0.00,,,0.00,,2013-09-03 14:52:00,
2013-09-03 10:22:00,66.0,59.0,29.97,SSE,155,2.0,4.0,78,0.00,,,0.00,,2013-09-03 15:22:00,
2013-09-03 10:43:00,67.0,60.0,29.96,SE,127,1.0,6.0,79,0.00,,,0.00,,2013-09-03 15:43:00,
2013-09-03 10:54:00,68.0,61.0,29.97,SSW,202,2.0,4.0,77,0.00,,,0.00,,2013-09-03 15:54:00,
2013-09-03 11:14:00,68.0,61.0,29.97,SSW,196,2.0,5.0,77,0.00,,,0.00,,2013-09-03 16:14:00,
2013-09-03 11:24:00,68.0,61.0,29.97,SSW,196,1.0,2.0,77,0.00,,,0.00,,2013-09-03 16:24:00,
2013-09-03 11:43:00,69.0,61.0,29.97,South,184,0.0,2.0,77,0.00,,,0.00,,2013-09-03 16:43:00,
2013-09-03 11:54:00,69.0,61.0,29.97,SW,215,1.0,3.0,76,0.00,,,0.00,,2013-09-03 16:54:00,
2013-09-03 12:13:00,70.0,62.0,29.98,SW,215,0.0,1.0,75,0.00,,,0.00,,2013-09-03 17:13:00,
2013-09-03 12:23:00,71.0,62.0,29.98,SSW,211,1.0,4.0,72,0.00,,,0.00,,2013-09-03 17:23:00,
2013-09-03 12:43:00,72.0,62.0,29.98,SSW,200,2.0,4.0,71,0.00,,,0.00,,2013-09-03 17:43:00,
2013-09-03 12:52:00,75.0,63.0,29.98,South,185,2.0,4.0,66,0.00,,,0.00,,2013-09-03 17:52:00,
2013-09-03 13:12:00,77.0,64.0,29.97,ESE,109,2.0,5.0,64,0.00,,,0.00,,2013-09-03 18:12:00,
2013-09-03 13:22:00,78.0,65.0,29.97,East,80,1.0,4.0,65,0.00,,,0.00,,2013-09-03 18:22:00,
2013-09-03 13:43:00,80.0,65.0,29.96,SE,140,1.0,6.0,61,0.00,,,0.00,,2013-09-03 18:43:00,
2013-09-03 13:52:00,82.0,65.0,29.96,ESE,116,2.0,5.0,57,0.00,,,0.00,,2013-09-03 18:52:00,
2013-09-03 14:11:00,83.0,66.0,29.97,SSE,159,3.0,6.0,56,0.00,,,0.00,,2013-09-03 19:11:00,
2013-09-03 14:22:00,84.0,66.0,29.97,SSE,167,3.0,9.0,55,0.00,,,0.00,,2013-09-03 19:22:00,
2013-09-03 14:42:00,85.0,66.0,29.96,SE,140,2.0,7.0,53,0.00,,,0.00,,2013-09-03 19:42:00,
2013-09-03 14:52:00,87.0,65.0,29.96,SE,145,2.0,5.0,49,0.00,,,0.00,,2013-09-03 19:52:00,
2013-09-03 15:11:00,87.0,67.0,29.96,SE,129,3.0,7.0,51,0.00,,,0.00,,2013-09-03 20:11:00,
2013-09-03 15:22:00,87.0,66.0,29.95,South,182,2.0,7.0,50,0.00,,,0.00,,2013-09-03 20:22:00,
2013-09-03 15:42:00,87.0,65.0,29.95,South,171,4.0,7.0,49,0.00,,,0.00,,2013-09-03 20:42:00,
2013-09-03 15:53:00,88.0,66.0,29.95,SSE,167,2.0,8.0,48,0.00,,,0.00,,2013-09-03 20:53:00,
2013-09-03 16:12:00,88.0,65.0,29.95,ESE,108,1.0,7.0,47,0.00,,,0.00,,2013-09-03 21:12:00,
2013-09-03 16:22:00,88.0,63.0,29.95,SSE,152,4.0,7.0,44,0.00,,,0.00,,2013-09-03 21:22:00,
2013-09-03 16:44:00,89.0,65.0,29.95,South,188,3.0,5.0,46,0.00,,,0.00,,2013-09-03 21:44:00,
2013-09-03 16:54:00,89.0,64.0,29.95,South,185,0.0,5.0,44,0.00,,,0.00,,2013-09-03 21:54:00,
2013-09-03 17:13:00,89.0,63.0,29.95,SSE,151,2.0,5.0,42,0.00,,,0.00,,2013-09-03 22:13:00,
2013-09-03 17:23:00,90.0,64.0,29.95,SE,136,1.0,6.0,43,0.00,,,0.00,,2013-09-03 22:23:00,
2013-09-03 17:53:00,90.0,63.0,29.95,ESE,104,1.0,4.0,41,0.00,,,0.00,,2013-09-03 22:53:00,
2013-09-03 18:12:00,91.0,62.0,29.96,SE,135,1.0,5.0,38,0.00,,,0.00,,2013-09-03 23:12:00,
2013-09-03 18:22:00,90.0,62.0,29.96,SE,135,0.0,2.0,39,0.00,,,0.00,,2013-09-03 23:22:00,
2013-09-03 18:42:00,90.0,62.0,29.96,SE,145,0.0,1.0,39,0.00,,,0.00,,2013-09-03 23:42:00,
2013-09-03 18:54:00,90.0,61.0,29.96,SE,145,0.0,1.0,38,0.00,,,0.00,,2013-09-03 23:54:00,
2013-09-03 19:12:00,89.0,63.0,29.96,SE,145,0.0,1.0,42,0.00,,,0.00,,2013-09-04 00:12:00,
2013-09-03 19:42:00,87.0,67.0,29.96,SE,145,0.0,0.0,51,0.00,,,0.00,,2013-09-04 00:42:00,
2013-09-03 19:52:00,86.0,67.0,29.96,SE,145,0.0,0.0,54,0.00,,,0.00,,2013-09-04 00:52:00,
2013-09-03 20:11:00,84.0,66.0,29.97,SE,145,0.0,1.0,54,0.00,,,0.00,,2013-09-04 01:11:00,
2013-09-03 20:22:00,81.0,68.0,29.97,SE,145,1.0,2.0,64,0.00,,,0.00,,2013-09-04 01:22:00,
2013-09-03 20:42:00,79.0,65.0,29.97,SE,145,0.0,1.0,63,0.00,,,0.00,,2013-09-04 01:42:00,
2013-09-03 20:53:00,77.0,65.0,29.97,SE,145,0.0,1.0,66,0.00,,,0.00,,2013-09-04 01:53:00,
2013-09-03 21:11:00,76.0,63.0,29.98,ESE,109,2.0,4.0,64,0.00,,,0.00,,2013-09-04 02:11:00,
2013-09-03 21:22:00,76.0,62.0,29.98,East,97,2.0,5.0,63,0.00,,,0.00,,2013-09-04 02:22:00,
2013-09-03 21:43:00,76.0,62.0,29.99,East,81,1.0,3.0,62,0.00,,,0.00,,2013-09-04 02:43:00,
2013-09-03 21:52:00,75.0,61.0,29.99,East,81,1.0,2.0,62,0.00,,,0.00,,2013-09-04 02:52:00,
2013-09-03 22:11:00,74.0,60.0,29.99,East,80,1.0,4.0,62,0.00,,,0.00,,2013-09-04 03:11:00,
2013-09-03 22:22:00,74.0,60.0,29.99,East,80,0.0,3.0,62,0.00,,,0.00,,2013-09-04 03:22:00,
2013-09-03 22:44:00,73.0,59.0,29.99,East,80,0.0,1.0,62,0.00,,,0.00,,2013-09-04 03:44:00,
2013-09-03 22:54:00,73.0,59.0,30.00,East,80,0.0,2.0,62,0.00,,,0.00,,2013-09-04 03:54:00,
2013-09-03 23:14:00,73.0,60.0,30.00,East,80,0.0,2.0,63,0.00,,,0.00,,2013-09-04 04:14:00,
2013-09-03 23:44:00,71.0,59.0,30.01,East,80,0.0,2.0,65,0.00,,,0.00,,2013-09-04 04:44:00,
2013-09-03 23:54:00,71.0,59.0,30.00,East,80,1.0,3.0,67,0.00,,,0.00,,2013-09-04 04:54:00,